When you browse on this site, cookies collect data to enhance your experience and personalize the content and advertising you see.
Visit our Privacy Policy to learn more. By continuing to use the site, you agree to this use of cookies and data.
  • Em Portugal
  • Lista de países
  • Para 7 dias
  • Temperatura da água
  • Mapas de satélite
  • Mapa do tempo
  • Widgets de tempo
  • user-avatar
    Iniciar Sessão

    Previsão horária em Alinowo

    Hoje, 18 Abril, Quinta-feira

    Tempo Temperatura Precipitação Vento Pressão Humidade
    00:00 +9°C° 0 mm 2 m/s 762 mmHg 70%
    01:00 +8°C° 0 mm 3 m/s 762 mmHg 70%
    02:00 +8°C° 0 mm 2 m/s 762 mmHg 71%
    03:00 +8°C° 0 mm 2 m/s 763 mmHg 71%
    04:00 +7°C° 0 mm 2 m/s 763 mmHg 71%
    05:00 +8°C° 0 mm 2 m/s 763 mmHg 70%
    06:00 +9°C° 0 mm 2 m/s 763 mmHg 68%
    07:00 +10°C° 0 mm 2 m/s 764 mmHg 66%
    08:00 +14°C° 0 mm 2 m/s 764 mmHg 60%
    09:00 +16°C° 0 mm 3 m/s 764 mmHg 53%
    10:00 +18°C° 0 mm 3 m/s 764 mmHg 47%
    11:00 +18°C° 0 mm 3 m/s 764 mmHg 44%
    12:00 +19°C° 0 mm 3 m/s 764 mmHg 41%
    13:00 +20°C° 0 mm 3 m/s 764 mmHg 38%
    14:00 +20°C° 0 mm 3 m/s 764 mmHg 38%
    15:00 +20°C° 0 mm 3 m/s 763 mmHg 38%
    16:00 +20°C° 0 mm 3 m/s 763 mmHg 39%
    17:00 +18°C° 0 mm 2 m/s 763 mmHg 44%
    18:00 +16°C° 0 mm 2 m/s 764 mmHg 48%
    19:00 +14°C° 0 mm 1 m/s 764 mmHg 53%
    20:00 +13°C° 0 mm 2 m/s 764 mmHg 58%
    21:00 +12°C° 0 mm 3 m/s 764 mmHg 63%
    22:00 +11°C° 0 mm 3 m/s 765 mmHg 68%
    23:00 +10°C° 0 mm 3 m/s 765 mmHg 72%

    Amanhã, 19 Abril, Sexta-feira

    Tempo Temperatura Precipitação Vento Pressão Humidade
    00:00 +9°C° 0 mm 3 m/s 765 mmHg 75%
    01:00 +9°C° 0 mm 3 m/s 765 mmHg 78%
    02:00 +8°C° 0 mm 3 m/s 765 mmHg 78%
    03:00 +8°C° 0 mm 3 m/s 765 mmHg 78%
    04:00 +7°C° 0 mm 3 m/s 765 mmHg 78%
    05:00 +8°C° 0 mm 3 m/s 766 mmHg 74%
    06:00 +9°C° 0 mm 3 m/s 766 mmHg 70%
    07:00 +10°C° 0 mm 3 m/s 766 mmHg 66%
    08:00 +12°C° 0 mm 3 m/s 766 mmHg 60%
    09:00 +14°C° 0 mm 3 m/s 766 mmHg 54%
    10:00 +17°C° 0 mm 3 m/s 766 mmHg 48%
    11:00 +18°C° 0 mm 3 m/s 766 mmHg 44%
    12:00 +19°C° 0 mm 3 m/s 766 mmHg 39%
    13:00 +20°C° 0 mm 3 m/s 766 mmHg 35%
    14:00 +20°C° 0 mm 3 m/s 765 mmHg 34%
    15:00 +20°C° 0 mm 3 m/s 765 mmHg 34%
    16:00 +20°C° 0 mm 3 m/s 765 mmHg 33%
    17:00 +18°C° 0 mm 3 m/s 765 mmHg 39%
    18:00 +16°C° 0 mm 3 m/s 765 mmHg 45%
    19:00 +13°C° 0 mm 3 m/s 765 mmHg 50%
    20:00 +12°C° 0 mm 3 m/s 765 mmHg 56%
    21:00 +10°C° 0 mm 3 m/s 765 mmHg 62%
    22:00 +9°C° 0 mm 3 m/s 765 mmHg 68%
    23:00 +8°C° 0 mm 3 m/s 765 mmHg 67%

    Depois de amanhã, 20 Abril, Sábado

    Tempo Temperatura Precipitação Vento Pressão Humidade
    00:00 +7°C° 0 mm 3 m/s 765 mmHg 66%
    01:00 +5°C° 0 mm 3 m/s 765 mmHg 65%
    02:00 +5°C° 0 mm 3 m/s 765 mmHg 63%
    03:00 +5°C° 0 mm 2 m/s 765 mmHg 61%
    04:00 +4°C° 0 mm 2 m/s 764 mmHg 59%
    05:00 +5°C° 0 mm 2 m/s 764 mmHg 57%
    06:00 +5°C° 0 mm 3 m/s 765 mmHg 55%
    07:00 +7°C° 0 mm 3 m/s 765 mmHg 54%
    08:00 +9°C° 0 mm 3 m/s 764 mmHg 50%
    09:00 +11°C° 0 mm 3 m/s 764 mmHg 47%
    10:00 +13°C° 0 mm 3 m/s 764 mmHg 43%
    11:00 +14°C° 0 mm 4 m/s 764 mmHg 42%
    12:00 +15°C° 0 mm 4 m/s 763 mmHg 41%
    13:00 +18°C° 0 mm 4 m/s 763 mmHg 40%
    14:00 +18°C° 0 mm 4 m/s 763 mmHg 41%
    15:00 +18°C° 0 mm 4 m/s 762 mmHg 41%
    16:00 +18°C° 0 mm 4 m/s 762 mmHg 41%
    17:00 +15°C° 0 mm 4 m/s 762 mmHg 46%
    18:00 +13°C° 0 mm 3 m/s 762 mmHg 50%
    19:00 +11°C° 0 mm 3 m/s 762 mmHg 55%
    20:00 +10°C° 0 mm 3 m/s 762 mmHg 57%
    21:00 +9°C° 0 mm 3 m/s 762 mmHg 60%
    22:00 +8°C° 0 mm 3 m/s 762 mmHg 62%
    23:00 +7°C° 0 mm 3 m/s 762 mmHg 64%

    21 Abril, Domingo

    Tempo Temperatura Precipitação Vento Pressão Humidade
    00:00 +5°C° 0 mm 3 m/s 762 mmHg 65%
    01:00 +6°C° 0 mm 2 m/s 762 mmHg 67%
    02:00 +5°C° 0 mm 2 m/s 761 mmHg 67%
    03:00 +5°C° 0 mm 2 m/s 761 mmHg 68%
    04:00 +5°C° 0 mm 2 m/s 761 mmHg 69%
    05:00 +6°C° 0 mm 2 m/s 761 mmHg 65%
    06:00 +7°C° 0 mm 2 m/s 761 mmHg 62%
    07:00 +8°C° 0 mm 2 m/s 761 mmHg 59%
    08:00 +10°C° 0 mm 2 m/s 760 mmHg 53%
    09:00 +13°C° 0 mm 2 m/s 760 mmHg 48%
    10:00 +15°C° 0 mm 2 m/s 760 mmHg 43%
    11:00 +16°C° 0 mm 2 m/s 760 mmHg 40%
    12:00 +17°C° 0 mm 2 m/s 759 mmHg 38%
    13:00 +18°C° 0 mm 3 m/s 759 mmHg 36%
    14:00 +18°C° 0 mm 3 m/s 758 mmHg 36%
    15:00 +18°C° 0 mm 3 m/s 758 mmHg 37%
    16:00 +18°C° 0 mm 3 m/s 757 mmHg 37%
    17:00 +17°C° 0 mm 2 m/s 757 mmHg 42%
    18:00 +15°C° 0 mm 2 m/s 757 mmHg 47%
    19:00 +14°C° 0 mm 1 m/s 757 mmHg 52%
    20:00 +13°C° 0 mm 1 m/s 757 mmHg 54%
    21:00 +12°C° 0 mm 2 m/s 757 mmHg 57%
    22:00 +10°C° 0 mm 2 m/s 757 mmHg 60%
    23:00 +10°C° 0 mm 1 m/s 757 mmHg 62%

    22 Abril, Segunda-feira

    Tempo Temperatura Precipitação Vento Pressão Humidade
    00:00 +9°C° 0 mm 1 m/s 757 mmHg 65%
    01:00 +9°C° 0 mm 1 m/s 757 mmHg 67%
    02:00 +8°C° 0 mm 1 m/s 756 mmHg 69%
    03:00 +8°C° 0 mm 1 m/s 756 mmHg 71%
    04:00 +7°C° 0 mm 1 m/s 756 mmHg 73%
    05:00 +8°C° 0 mm 2 m/s 756 mmHg 71%
    06:00 +9°C° 0 mm 2 m/s 756 mmHg 69%
    07:00 +10°C° 0 mm 3 m/s 756 mmHg 66%
    08:00 +11°C° 0 mm 3 m/s 756 mmHg 61%
    09:00 +13°C° 0 mm 3 m/s 756 mmHg 56%
    10:00 +16°C° 0 mm 3 m/s 756 mmHg 52%
    11:00 +15°C° 0.1 mm 4 m/s 756 mmHg 49%
    12:00 +17°C° 0.1 mm 4 m/s 756 mmHg 47%
    13:00 +18°C° 0.1 mm 4 m/s 755 mmHg 44%
    14:00 +17°C° 0.1 mm 4 m/s 755 mmHg 46%
    15:00 +17°C° 0.1 mm 4 m/s 755 mmHg 48%
    16:00 +17°C° 0.1 mm 4 m/s 755 mmHg 49%
    17:00 +14°C° 0.1 mm 4 m/s 755 mmHg 58%
    18:00 +13°C° 0.1 mm 4 m/s 755 mmHg 66%
    19:00 +11°C° 0.1 mm 3 m/s 755 mmHg 74%
    20:00 +10°C° 0 mm 3 m/s 756 mmHg 77%
    21:00 +10°C° 0 mm 3 m/s 756 mmHg 79%
    22:00 +8°C° 0 mm 4 m/s 756 mmHg 82%
    23:00 +8°C° 0 mm 4 m/s 756 mmHg 83%

    23 Abril, Terça-feira

    Tempo Temperatura Precipitação Vento Pressão Humidade
    00:00 +8°C° 0 mm 5 m/s 756 mmHg 83%
    01:00 +8°C° 0 mm 5 m/s 756 mmHg 84%
    02:00 +7°C° 0 mm 6 m/s 756 mmHg 81%
    03:00 +7°C° 0 mm 6 m/s 756 mmHg 77%
    04:00 +7°C° 0 mm 6 m/s 756 mmHg 74%
    05:00 +6°C° 0 mm 7 m/s 756 mmHg 71%
    06:00 +7°C° 0 mm 8 m/s 756 mmHg 69%
    07:00 +7°C° 0 mm 8 m/s 756 mmHg 66%
    08:00 +10°C° 0 mm 8 m/s 755 mmHg 64%
    09:00 +11°C° 0 mm 8 m/s 755 mmHg 62%
    10:00 +13°C° 0 mm 8 m/s 755 mmHg 60%
    11:00 +13°C° 0.2 mm 8 m/s 754 mmHg 63%
    12:00 +12°C° 0.2 mm 8 m/s 754 mmHg 66%
    13:00 +12°C° 0.2 mm 7 m/s 753 mmHg 70%
    14:00 +13°C° 0 mm 8 m/s 753 mmHg 65%
    15:00 +15°C° 0 mm 9 m/s 753 mmHg 60%
    16:00 +16°C° 0 mm 9 m/s 752 mmHg 56%
    17:00 +16°C° 0 mm 9 m/s 752 mmHg 56%
    18:00 +15°C° 0 mm 8 m/s 752 mmHg 56%
    19:00 +15°C° 0 mm 8 m/s 752 mmHg 56%
    20:00 +13°C° 0 mm 8 m/s 752 mmHg 56%
    21:00 +12°C° 0 mm 7 m/s 752 mmHg 56%
    22:00 +11°C° 0 mm 7 m/s 752 mmHg 56%
    23:00 +11°C° 0 mm 7 m/s 752 mmHg 57%
    Mostrar mais